{"data":{"norad_id":63036,"epoch":"2026-09-21T18:48:47.789280Z","epoch_age_seconds":54458,"freshness":"FRESH","line1":"1 63036U 25034H   26264.78388645  .00017914  00000+0  58743-3 0  9992","line2":"2 63036  53.1613  67.0157 0001178  64.9035 295.2089 15.31711847 89111","mean_motion":15.31711847,"eccentricity":0.0001178,"inclination_deg":53.1613,"raan_deg":67.0157,"arg_perigee_deg":64.9035,"mean_anomaly_deg":295.2089,"bstar":0.00058743,"rev_number":8911,"period_min":94.012460817638,"perigee_km":469.89788661281,"apogee_km":471.51147371266,"semimajor_km":6848.8416801627,"source":"CELESTRAK","updated_at":"2026-09-22T09:00:49.744623Z"}}